| time (UTC) | temp F | wind direction | speed MPH | gust MPH | rain 1hr in | rain 24hr in | rain mn in | humidity % | barometer mb |
| 20260506034557 | 59 | 250 | 5.0 | 0.0 | 0.00 | 0.00 | 0.01 | 59 | 1004.9 |
| 20260506033056 | 59 | 202 | 4.0 | 0.0 | 0.00 | 0.00 | 0.01 | 56 | 1004.8 |
| 20260506031601 | 59 | 208 | 4.0 | 0.0 | 0.00 | 0.00 | 0.01 | 56 | 1004.6 |
| 20260506030111 | 60 | 259 | 6.0 | 0.0 | 0.00 | 0.00 | 0.01 | 55 | 1004.6 |
| 20260506024555 | 61 | 217 | 5.0 | 0.0 | 0.00 | 0.00 | 0.01 | 53 | 1004.3 |
| 20260506023054 | 63 | 227 | 6.0 | 0.0 | 0.00 | 0.00 | 0.01 | 48 | 1004.3 |
| 20260506021553 | 67 | 217 | 3.0 | 0.0 | 0.00 | 0.00 | 0.01 | 40 | 1004.2 |
| 20260506020052 | 68 | 360 | 3.0 | 0.0 | 0.00 | 0.00 | 0.01 | 35 | 1004.1 |
| 20260506014558 | 69 | 5 | 3.0 | 0.0 | 0.00 | 0.00 | 0.01 | 36 | 1004.1 |
| 20260506013051 | 69 | 5 | 4.0 | 0.0 | 0.00 | 0.00 | 0.01 | 34 | 1004.1 |
| 20260506011556 | 69 | 9 | 4.0 | 0.0 | 0.00 | 0.00 | 0.01 | 35 | 1004.3 |
| 20260506010054 | 69 | 28 | 3.0 | 0.0 | 0.00 | 0.00 | 0.01 | 35 | 1004.4 |
| 20260506004622 | 69 | 12 | 3.0 | 0.0 | 0.00 | 0.00 | 0.01 | 35 | 1004.4 |
| 20260506003048 | 68 | 350 | 3.0 | 0.0 | 0.00 | 0.00 | 0.01 | 37 | 1004.5 |
| 20260506001547 | 68 | 18 | 3.0 | 0.0 | 0.00 | 0.00 | 0.01 | 36 | 1004.5 |
| 20260506000047 | 68 | 150 | 5.0 | 0.0 | 0.00 | 0.00 | 0.01 | 37 | 1004.6 |
| 20260505234606 | 67 | 158 | 4.0 | 0.0 | 0.00 | 0.00 | 0.01 | 39 | 1004.6 |
| 20260505233043 | 67 | 272 | 5.0 | 0.0 | 0.00 | 0.00 | 0.01 | 38 | 1004.8 |
| 20260505231543 | 67 | 25 | 3.0 | 0.0 | 0.00 | 0.00 | 0.01 | 40 | 1004.9 |
| 20260505230039 | 67 | 355 | 3.0 | 0.0 | 0.00 | 0.00 | 0.01 | 40 | 1005.0 |
| 20260505224538 | 66 | 73 | 4.0 | 0.0 | 0.00 | 0.00 | 0.01 | 43 | 1005.3 |
| 20260505223046 | 66 | 301 | 3.0 | 0.0 | 0.00 | 0.00 | 0.01 | 43 | 1005.5 |
| 20260505221532 | 65 | 111 | 4.0 | 0.0 | 0.00 | 0.00 | 0.01 | 48 | 1005.8 |
| 20260505220030 | 64 | 53 | 2.0 | 0.0 | 0.00 | 0.00 | 0.01 | 45 | 1006.0 |
| 20260505214537 | 64 | 24 | 3.0 | 0.0 | 0.00 | 0.00 | 0.01 | 46 | 1006.1 |
| 20260505213026 | 63 | 19 | 4.0 | 0.0 | 0.00 | 0.00 | 0.01 | 47 | 1006.1 |
| 20260505211525 | 63 | 334 | 3.0 | 0.0 | 0.00 | 0.00 | 0.01 | 46 | 1006.4 |
| 20260505210023 | 62 | 345 | 4.0 | 0.0 | 0.00 | 0.00 | 0.01 | 53 | 1006.6 |
| 20260505204526 | 62 | 22 | 4.0 | 0.0 | 0.00 | 0.00 | 0.01 | 54 | 1006.9 |
| 20260505203017 | 60 | 67 | 2.0 | 0.0 | 0.00 | 0.00 | 0.01 | 55 | 1006.8 |
| 20260505201517 | 59 | 355 | 3.0 | 0.0 | 0.00 | 0.00 | 0.01 | 61 | 1006.9 |
| 20260505200022 | 60 | 49 | 3.0 | 0.0 | 0.00 | 0.00 | 0.01 | 62 | 1007.1 |
| 20260505194511 | 59 | 87 | 3.0 | 0.0 | 0.00 | 0.00 | 0.01 | 64 | 1007.2 |
| 20260505193011 | 58 | 28 | 3.0 | 0.0 | 0.00 | 0.00 | 0.01 | 64 | 1007.2 |
| 20260505191510 | 58 | 360 | 4.0 | 0.0 | 0.00 | 0.00 | 0.01 | 66 | 1007.2 |
| 20260505190006 | 57 | 49 | 3.0 | 0.0 | 0.00 | 0.00 | 0.01 | 71 | 1007.1 |
| 20260505184503 | 56 | 32 | 2.0 | 0.0 | 0.00 | 0.00 | 0.01 | 71 | 1007.1 |
| 20260505183101 | 55 | 86 | 2.0 | 0.0 | 0.00 | 0.00 | 0.01 | 72 | 1007.2 |
| 20260505181556 | 54 | 85 | 3.0 | 0.0 | 0.00 | 0.00 | 0.01 | 76 | 1007.3 |
| 20260505180053 | 53 | 139 | 1.0 | 0.0 | 0.00 | 0.00 | 0.01 | 77 | 1007.1 |
| 20260505174550 | 51 | 154 | 1.0 | 0.0 | 0.00 | 0.00 | 0.01 | 80 | 1007.0 |
| 20260505173049 | 50 | 180 | 0.0 | 0.0 | 0.00 | 0.00 | 0.01 | 84 | 1007.0 |
| 20260505171544 | 49 | 180 | 1.0 | 0.0 | 0.00 | 0.00 | 0.01 | 85 | 1006.8 |
| 20260505170040 | 49 | 180 | 0.0 | 0.0 | 0.00 | 0.00 | 0.01 | 87 | 1006.7 |
| 20260505164538 | 48 | 180 | 1.0 | 0.0 | 0.00 | 0.00 | 0.01 | 88 | 1006.7 |
| 20260505163036 | 47 | 205 | 2.0 | 0.0 | 0.00 | 0.00 | 0.01 | 90 | 1006.7 |
| 20260505161534 | 47 | 252 | 1.0 | 0.0 | 0.00 | 0.00 | 0.01 | 90 | 1006.5 |
| 20260505153028 | 46 | 262 | 0.0 | 0.0 | 0.00 | 0.00 | 0.01 | 91 | 1006.2 |
| 20260505151525 | 45 | 262 | 0.0 | 0.0 | 0.00 | 0.00 | 0.01 | 92 | 1006.1 |
| 20260505124516 | 44 | 261 | 1.0 | 0.0 | 0.00 | 0.00 | 0.01 | 95 | 1004.6 |
| 20260505123016 | 44 | 261 | 0.0 | 0.0 | 0.00 | 0.00 | 0.01 | 95 | 1004.5 |
| 20260505121516 | 44 | 261 | 0.0 | 0.0 | 0.00 | 0.00 | 0.01 | 95 | 1004.5 |
| 20260505120014 | 44 | 260 | 0.0 | 0.0 | 0.00 | 0.00 | 0.01 | 95 | 1004.5 |
| 20260505114514 | 44 | 261 | 0.0 | 0.0 | 0.00 | 0.00 | 0.01 | 95 | 1004.5 |
| 20260505113013 | 44 | 261 | 0.0 | 0.0 | 0.00 | 0.00 | 0.01 | 95 | 1004.4 |
| 20260505111513 | 44 | 261 | 0.0 | 0.0 | 0.00 | 0.00 | 0.01 | 95 | 1004.3 |
| 20260505101518 | 43 | 260 | 0.0 | 0.0 | 0.00 | 0.00 | 0.01 | 94 | 1004.5 |
| 20260505100011 | 43 | 260 | 0.0 | 0.0 | 0.00 | 0.00 | 0.01 | 95 | 1004.7 |
| 20260505094518 | 43 | 260 | 0.0 | 0.0 | 0.00 | 0.00 | 0.01 | 94 | 1004.7 |
| 20260505093007 | 43 | 260 | 0.0 | 0.0 | 0.00 | 0.00 | 0.01 | 93 | 1004.8 |
| 20260505091507 | 44 | 260 | 0.0 | 0.0 | 0.00 | 0.00 | 0.01 | 93 | 1004.9 |
| 20260505090005 | 44 | 260 | 0.0 | 0.0 | 0.00 | 0.00 | 0.01 | 94 | 1004.9 |
| 20260505084504 | 44 | 260 | 0.0 | 0.0 | 0.00 | 0.00 | 0.01 | 94 | 1005.1 |
| 20260505083004 | 44 | 260 | 1.0 | 0.0 | 0.00 | 0.00 | 0.01 | 94 | 1005.5 |
| 20260505081503 | 44 | 260 | 0.0 | 0.0 | 0.00 | 0.00 | 0.01 | 94 | 1005.4 |
| 20260505080002 | 44 | 260 | 0.0 | 0.0 | 0.00 | 0.00 | 0.01 | 93 | 1005.1 |
| 20260505074502 | 44 | 260 | 2.0 | 0.0 | 0.00 | 0.00 | 0.01 | 93 | 1004.7 |
| 20260505073104 | 44 | 155 | 1.0 | 0.0 | 0.00 | 0.00 | 0.01 | 93 | 1005.4 |
| 20260505071557 | 44 | 155 | 0.0 | 0.0 | 0.00 | 0.00 | 0.00 | 93 | 1005.6 |
| 20260505070056 | 44 | 155 | 0.0 | 0.0 | 0.00 | 0.00 | 0.00 | 93 | 1005.1 |
| 20260505064553 | 44 | 150 | 2.0 | 0.0 | 0.00 | 0.00 | 0.46 | 93 | 1004.8 |
| 20260505063112 | 43 | 150 | 2.0 | 0.0 | 0.00 | 0.00 | 0.44 | 93 | 1004.6 |
| 20260505061555 | 43 | 149 | 3.0 | 0.0 | 0.00 | 0.00 | 0.44 | 93 | 1004.6 |
| 20260505060054 | 43 | 150 | 4.0 | 0.0 | 0.00 | 0.00 | 0.44 | 92 | 1004.3 |
| 20260505054607 | 44 | 148 | 3.0 | 0.0 | 0.00 | 0.00 | 0.44 | 93 | 1004.6 |
| 20260505053058 | 44 | 137 | 3.0 | 0.0 | 0.00 | 0.00 | 0.44 | 93 | 1004.5 |
| 20260505051551 | 44 | 85 | 1.0 | 0.0 | 0.00 | 0.00 | 0.43 | 93 | 1005.0 |
| 20260505041555 | 44 | 28 | 3.0 | 0.0 | 0.00 | 0.00 | 0.42 | 92 | 1004.6 |
| 20260505040053 | 44 | 21 | 3.0 | 0.0 | 0.00 | 0.00 | 0.42 | 91 | 1004.4 |